Tracking 29088 objects as of 13-Jul-2024
HD Live streaming from Space Station
objects crossing your sky now

STARLINK-32029

Track STARLINK-32029 now!
10-day predictions
STARLINK-32029 is classified as:


NORAD ID: 60145
Int'l Code: 2024-120L
Perigee: 331.7 km
Apogee: 333.4 km
Inclination: 53.1 °
Period: 91.0 minutes
Semi major axis: 6703 km
RCS: Unknown
Launch date: June 27, 2024
Source: United States (US)
Launch site: AIR FORCE EASTERN TEST RANGE (AFETR)
Your satellite tracking list
Your tracking list is empty




NASA's NSSDC Master Catalog

Two Line Element Set (TLE):
1 60145U 24120L   24194.91667824 -.00953080  00000-0 -51600-2 0  9999
2 60145  53.1482 262.7271 0001263  85.3803 158.2885 15.81787156  3534
Source of the keplerian elements: AFSPC